Location: Unspecified
(52.4292°N, 19.3359°E)
Time: 00:56:34
(UTC+02:00)

A-11 Canister half - Pass Details

Date: 19 May 2024
Orbit: 1514 x 1685 km, 47.2° (Epoch: 20 June)

Event Time Altitude Azimuth Distance (km) Brightness Sun altitude
Rises 06:20:30 0° 258° (WSW) 4,707 10.9 12.9°
Reaches altitude 10° 06:23:35 10° 256° (WSW) 3,708 10.4 13.3°
Maximum altitude 06:32:45 65° 178° (S) 1,648 9.4 14.7°
Drops below altitude 10° 06:41:50 10° 99° (E) 3,680 12.6 16.0°
Sets 06:44:53 0° 97° (E) 4,670 13.0 16.5°
